Location: Ciochowice
(50.4289°N, 18.5217°E)
Time: 23:50:57
(UTC+01:00)

ISS - Pass Details

Date: 28 January 2019
Orbit: 403 x 411 km, 51.6° (Epoch: 20 February)

Event Time Altitude Azimuth Distance (km) Brightness Sun altitude
Rises 17:31:02 0° 239° (WSW) 2,327 1.8 -9.6°
Reaches altitude 10° 17:33:07 10° 234° (SW) 1,470 0.3 -9.9°
Maximum altitude 17:36:21 55° 156° (SSE) 499 -3.5 -10.4°
Enters shadow 17:38:44 17° 82° (E) 1,134 -2.2 -10.8°
